Location: Blackfoot
(53.5367°N, 112.7800°W)
Time: 12:12:34
(UTC-06:00)

Amateur Radio Satellites - All Passes

Search period start: 30 October 2014 11:42
Search period end: 31 October 2014 11:42
Location: Blackfoot, 53.5367°N, 112.7800°W

Satellite Date Start Highest point End Downlink Frequencies (MHz)
Time Altitude Azimuth
Oscar 16 30 Oct 12:07:49 12:10:57 17° 50° (NE) 12:14:05 437.025 USB, Beacon 2401.1428
KITSAT 1 30 Oct 12:15:52 12:23:42 58° 120° (ESE) 12:31:34 435.175 FM
UKube-1 30 Oct 12:20:32 12:24:38 40° 295° (WNW) 12:28:43 145.840 MHz, 145.915 MHz
JAS-1B 30 Oct 12:21:29 12:25:41 22° 49° (NE) 12:30:04 435.800 - 435.900 CW/SSB
ZACube-1 30 Oct 12:27:10 12:31:24 66° 288° (WNW) 12:35:32 437.345 MHz
ISS 30 Oct 12:38:41 12:41:40 31° 155° (SSE) 12:44:40 145.800 FM
Uribyol 2 30 Oct 12:39:02 12:41:56 15° 48° (NE) 12:44:51 436.500 FM
ITAMSAT 1 30 Oct 12:46:25 12:49:32 16° 49° (NE) 12:52:40 435.822 SSB
AO-Echo 30 Oct 12:51:19 12:54:53 20° 52° (NE) 12:58:31 ?
Saudisat 1A 30 Oct 12:53:02 12:56:49 26° 21° (NNE) 13:00:35 436.775 MHz
Oscar 11 30 Oct 12:57:11 13:00:25 21° 301° (WNW) 13:03:38 145.825 FM, Beacon 2401.500 USB
Oscar 19 30 Oct 12:58:14 13:02:48 34° 61° (ENE) 13:07:23 437.125 CW, 437.150 USB
Sapphire 30 Oct 13:01:49 13:06:39 33° 245° (WSW) 13:11:27 437.095 MHz 1200 baud AX-25 AFSK
SO-50 30 Oct 13:05:57 13:10:29 69° 130° (SE) 13:15:10 436.795 FM
FUNcube-1 30 Oct 13:10:46 13:14:26 28° 297° (WNW) 13:18:01 145.950 - 145.970 MHz USB
HO-68 30 Oct 13:14:44 13:20:12 24° 316° (NW) 13:25:40 435.675 MHz FM
AO-7 30 Oct 13:15:27 13:20:18 17° 25° (NNE) 13:25:11 29.400 - 29.500 MHz
PCSat 30 Oct 13:24:05 13:28:13 23° 251° (WSW) 13:32:20 145.825 MHz
AO-27 30 Oct 13:31:49 13:36:22 31° 59° (ENE) 13:40:56 436.795 MHz FM
Gurwin Techsat 1B 30 Oct 13:41:46 13:45:52 23° 55° (NE) 13:49:59 435.225 FM
Oscar 16 30 Oct 13:44:23 13:49:31 73° 71° (ENE) 13:54:40 437.025 USB, Beacon 2401.1428
TMSAT-1 30 Oct 13:49:08 13:53:02 21° 53° (NE) 13:56:55 436.925 FM
UOSAT-12 30 Oct 13:56:17 14:00:20 30° 120° (ESE) 14:04:27 437.025 FM, 437.400 FM
ZACube-1 30 Oct 14:05:28 14:07:00 12° 309° (NW) 14:08:32 437.345 MHz
JAS-1B 30 Oct 14:10:01 14:15:43 85° 253° (WSW) 14:21:37 435.800 - 435.900 CW/SSB
KITSAT 1 30 Oct 14:11:20 14:19:16 57° 325° (NW) 14:27:15 435.175 FM
ISS 30 Oct 14:14:46 14:18:04 62° 175° (S) 14:21:23 145.800 FM
Uribyol 2 30 Oct 14:15:20 14:20:30 64° 69° (ENE) 14:25:42 436.500 FM
ITAMSAT 1 30 Oct 14:23:00 14:28:11 69° 70° (ENE) 14:33:25 435.822 SSB
AO-Echo 30 Oct 14:27:55 14:32:58 88° 73° (ENE) 14:38:13 ?
Saudisat 1A 30 Oct 14:32:34 14:37:01 78° 43° (NE) 14:41:27 436.775 MHz
Oscar 19 30 Oct 14:37:05 14:42:02 47° 261° (W) 14:47:01 437.125 CW, 437.150 USB
Uosat F 30 Oct 14:43:47 14:45:47 12° 45° (NE) 14:47:47 435.120 FM
SO-50 30 Oct 14:47:09 14:51:24 35° 333° (NNW) 14:55:47 436.795 FM
AO-7 30 Oct 15:03:30 15:11:01 41° 50° (NE) 15:18:33 29.400 - 29.500 MHz
AO-27 30 Oct 15:10:33 15:15:40 54° 259° (W) 15:20:50 436.795 MHz FM
Gurwin Techsat 1B 30 Oct 15:20:01 15:25:20 78° 255° (WSW) 15:30:42 435.225 FM
Oscar 16 30 Oct 15:25:34 15:29:26 21° 271° (W) 15:33:19 437.025 USB, Beacon 2401.1428
TMSAT-1 30 Oct 15:27:02 15:32:21 87° 254° (WSW) 15:37:43 436.925 FM
UOSAT-12 30 Oct 15:35:35 15:40:14 63° 321° (NW) 15:44:58 437.025 FM, 437.400 FM
ISS 30 Oct 15:51:21 15:54:36 48° 195° (SSW) 15:57:50 145.800 FM
JAS-2 30 Oct 15:54:36 15:59:36 22° 45° (NE) 16:04:59 435.800 - 435.900 CW/SSB, 435.910 FM
Uribyol 2 30 Oct 15:56:10 16:00:25 25° 269° (W) 16:04:42 436.500 FM
ITAMSAT 1 30 Oct 16:04:05 16:08:11 23° 270° (W) 16:12:19 435.822 SSB
JAS-1B 30 Oct 16:04:16 16:07:34 16° 276° (W) 16:10:55 435.800 - 435.900 CW/SSB
KITSAT 1 30 Oct 16:09:08 16:16:24 35° 353° (N) 16:23:41 435.175 FM
AO-Echo 30 Oct 16:09:12 16:12:30 17° 274° (W) 16:15:52 ?
Saudisat 1A 30 Oct 16:12:48 16:16:09 21° 243° (WSW) 16:19:29 436.775 MHz
Uosat F 30 Oct 16:18:39 16:23:32 52° 66° (ENE) 16:28:27 435.120 FM
SO-50 30 Oct 16:29:32 16:33:12 22° 357° (N) 16:36:56 436.795 FM
Hamsat 30 Oct 16:34:12 16:35:58 12° 53° (NE) 16:37:43 145.90 MHz
AO-7 30 Oct 16:55:12 17:03:27 70° 253° (WSW) 17:11:46 29.400 - 29.500 MHz
Gurwin Techsat 1B 30 Oct 17:03:17 17:06:13 15° 276° (W) 17:09:09 435.225 FM
TMSAT-1 30 Oct 17:09:43 17:13:04 17° 274° (W) 17:16:26 436.925 FM
UOSAT-12 30 Oct 17:17:15 17:21:13 26° 343° (NNW) 17:25:13 437.025 FM, 437.400 FM
ISS 30 Oct 17:28:26 17:30:48 18° 214° (SW) 17:33:08 145.800 FM
JAS-2 30 Oct 17:36:56 17:43:25 71° 68° (ENE) 17:50:46 435.800 - 435.900 CW/SSB, 435.910 FM
Uosat F 30 Oct 17:58:13 18:02:35 29° 266° (W) 18:06:59 435.120 FM
SO-67 30 Oct 18:03:39 18:04:22 11° 56° (NE) 18:05:06 435.3500 MHz FM
KITSAT 1 30 Oct 18:06:21 18:13:56 41° 21° (NNE) 18:21:30 435.175 FM
Hamsat 30 Oct 18:07:02 18:11:12 72° 73° (ENE) 18:15:23 145.90 MHz
SO-50 30 Oct 18:10:56 18:15:06 29° 21° (NNE) 18:19:20 436.795 FM
OPAL 30 Oct 18:16:54 18:21:06 27° 96° (E) 18:25:16 ?
HO-68 30 Oct 18:30:48 18:34:44 16° 34° (NNE) 18:38:40 435.675 MHz FM
AO-7 30 Oct 18:52:25 18:57:51 19° 276° (W) 19:03:20 29.400 - 29.500 MHz
UOSAT-12 30 Oct 18:59:01 19:02:46 22° 8° (N) 19:06:31 437.025 FM, 437.400 FM
JAS-2 30 Oct 19:23:31 19:29:11 30° 272° (W) 19:35:28 435.800 - 435.900 CW/SSB, 435.910 FM
Oscar 10/S400 30 Oct 19:29:51 19:54:32 39° 184° (S) 00:30:14 145.825 - 145.975 CW/USB, Beacon 145.810 USB
SO-67 30 Oct 19:33:18 19:36:44 84° 75° (ENE) 19:40:13 435.3500 MHz FM
Hamsat 30 Oct 19:45:06 19:47:40 16° 272° (W) 19:50:14 145.90 MHz
SO-50 30 Oct 19:51:30 19:56:19 79° 43° (NE) 20:01:13 436.795 FM
OPAL 30 Oct 19:55:27 20:00:19 55° 296° (WNW) 20:05:08 ?
KITSAT 1 30 Oct 20:02:14 20:10:23 85° 48° (NE) 20:18:29 435.175 FM
AO-40 30 Oct 20:04:07 01:02:19 29° 160° (SSE) 02:49:55 Beacon 2401.320
STRAND 1 30 Oct 20:11:26 20:16:26 47° 99° (E) 20:21:23 ?
UKube-1 30 Oct 20:13:14 20:14:40 12° 49° (NE) 20:16:06 145.840 MHz, 145.915 MHz
HO-68 30 Oct 20:14:05 20:20:47 45° 57° (ENE) 20:27:31 435.675 MHz FM
RS-15 30 Oct 20:30:30 20:37:38 20° 98° (E) 20:44:44 29.354 - 29.394 USB, Beacon 29.352 USB
UOSAT-12 30 Oct 20:39:31 20:44:02 41° 31° (NNE) 20:48:31 437.025 FM, 437.400 FM
Oscar 11 30 Oct 20:47:01 20:49:57 18° 57° (ENE) 20:52:53 145.825 FM, Beacon 2401.500 USB
FUNcube-1 30 Oct 21:02:45 21:04:58 14° 53° (NE) 21:07:10 145.950 - 145.970 MHz USB
SO-50 30 Oct 21:32:40 21:36:28 23° 243° (WSW) 21:40:17 436.795 FM
OPAL 30 Oct 21:35:55 21:38:15 13° 316° (NW) 21:40:35 ?
UKube-1 30 Oct 21:45:43 21:50:00 58° 69° (ENE) 21:54:19 145.840 MHz, 145.915 MHz
STRAND 1 30 Oct 21:50:53 21:55:32 34° 299° (WNW) 22:00:08 ?
ZACube-1 30 Oct 21:53:42 21:57:42 33° 64° (ENE) 22:01:39 437.345 MHz
KITSAT 1 30 Oct 21:58:12 22:05:02 31° 251° (WSW) 22:11:50 435.175 FM
HO-68 30 Oct 22:01:26 22:08:25 54° 259° (W) 22:15:29 435.675 MHz FM
UOSAT-12 30 Oct 22:19:44 22:24:22 53° 233° (SW) 22:28:55 437.025 FM, 437.400 FM
Oscar 11 30 Oct 22:21:20 22:25:40 76° 256° (WSW) 22:30:00 145.825 FM, Beacon 2401.500 USB
FUNcube-1 30 Oct 22:36:10 22:40:39 73° 73° (ENE) 22:45:04 145.950 - 145.970 MHz USB
RS-15 30 Oct 22:36:58 22:47:43 66° 123° (ESE) 22:58:31 29.354 - 29.394 USB, Beacon 29.352 USB
UKube-1 30 Oct 23:23:15 23:26:33 21° 269° (W) 23:29:53 145.840 MHz, 145.915 MHz
ZACube-1 30 Oct 23:29:50 23:34:03 39° 263° (W) 23:38:13 437.345 MHz
MaSat-1 30 Oct 23:40:28 23:44:11 69° 122° (ESE) 23:47:30 437.345 MHz
HO-68 30 Oct 23:55:13 23:57:53 12° 281° (W) 00:00:34 435.675 MHz FM
Oscar 11 31 Oct 00:01:24 00:02:38 11° 276° (W) 00:03:51 145.825 FM, Beacon 2401.500 USB
FUNcube-1 31 Oct 00:14:32 00:17:31 17° 271° (W) 00:20:29 145.950 - 145.970 MHz USB
RS-15 31 Oct 00:49:39 01:00:26 60° 332° (NNW) 01:11:25 29.354 - 29.394 USB, Beacon 29.352 USB
MaSat-1 31 Oct 01:17:19 01:19:52 18° 320° (NW) 01:22:14 437.345 MHz
JAS-1B 31 Oct 01:45:40 01:50:47 21° 88° (E) 01:56:29 435.800 - 435.900 CW/SSB
Oscar 16 31 Oct 01:50:43 01:53:50 16° 86° (E) 01:56:56 437.025 USB, Beacon 2401.1428
Sapphire 31 Oct 02:09:52 02:11:59 12° 102° (ESE) 02:14:06 437.095 MHz 1200 baud AX-25 AFSK
Uribyol 2 31 Oct 02:23:05 02:25:45 14° 84° (E) 02:28:23 436.500 FM
AO-Echo 31 Oct 02:29:19 02:33:13 20° 88° (E) 02:37:04 ?
PCSat 31 Oct 02:29:38 02:33:21 19° 107° (ESE) 02:37:06 145.825 MHz
ITAMSAT 1 31 Oct 02:30:39 02:33:41 15° 85° (E) 02:36:41 435.822 SSB
Oscar 19 31 Oct 02:41:56 02:46:43 38° 97° (E) 02:51:29 437.125 CW, 437.150 USB
RS-15 31 Oct 03:04:36 03:15:06 47° 4° (N) 03:25:52 29.354 - 29.394 USB, Beacon 29.352 USB
AO-27 31 Oct 03:17:04 03:21:51 34° 95° (E) 03:26:35 436.795 MHz FM
Oscar 16 31 Oct 03:28:48 03:33:58 87° 106° (ESE) 03:39:07 437.025 USB, Beacon 2401.1428
Gurwin Techsat 1B 31 Oct 03:30:03 03:34:32 27° 92° (E) 03:39:00 435.225 FM
JAS-1B 31 Oct 03:35:28 03:42:13 83° 107° (ESE) 03:50:21 435.800 - 435.900 CW/SSB
TMSAT-1 31 Oct 03:36:51 03:41:06 24° 90° (E) 03:45:20 436.925 FM
Sapphire 31 Oct 03:49:01 03:54:20 61° 123° (ESE) 03:59:42 437.095 MHz 1200 baud AX-25 AFSK
OPAL 31 Oct 04:00:51 04:04:37 21° 51° (NE) 04:08:21 ?
Uribyol 2 31 Oct 04:00:54 04:06:09 76° 105° (ESE) 04:11:20 436.500 FM
AO-Echo 31 Oct 04:07:15 04:12:36 80° 288° (WNW) 04:17:55 ?
ITAMSAT 1 31 Oct 04:08:45 04:14:01 82° 106° (ESE) 04:19:15 435.822 SSB
PCSat 31 Oct 04:10:37 04:16:03 86° 128° (SE) 04:21:32 145.825 MHz
Oscar 19 31 Oct 04:21:21 04:26:08 40° 297° (WNW) 04:30:53 437.125 CW, 437.150 USB
JAS-2 31 Oct 04:43:27 04:44:09 10° 71° (ENE) 04:44:51 435.800 - 435.900 CW/SSB, 435.910 FM
AO-7 31 Oct 04:49:40 04:56:41 29° 91° (E) 05:03:40 29.400 - 29.500 MHz
AO-27 31 Oct 04:56:31 05:01:31 46° 295° (WNW) 05:06:29 436.795 MHz FM
Oscar 16 31 Oct 05:09:04 05:12:45 20° 307° (NW) 05:16:25 437.025 USB, Beacon 2401.1428
Gurwin Techsat 1B 31 Oct 05:09:39 05:14:54 60° 292° (WNW) 05:20:07 435.225 FM
TMSAT-1 31 Oct 05:16:14 05:21:31 67° 290° (WNW) 05:26:46 436.925 FM
RS-15 31 Oct 05:18:24 05:29:28 70° 36° (NE) 05:40:55 29.354 - 29.394 USB, Beacon 29.352 USB
JAS-1B 31 Oct 05:26:55 05:32:25 29° 306° (NW) 05:38:43 435.800 - 435.900 CW/SSB
Sapphire 31 Oct 05:32:59 05:38:04 39° 325° (NW) 05:43:11 437.095 MHz 1200 baud AX-25 AFSK
OPAL 31 Oct 05:37:52 05:42:58 85° 251° (WSW) 05:48:03 ?
Uribyol 2 31 Oct 05:41:06 05:45:09 23° 305° (NW) 05:49:11 436.500 FM
AO-Echo 31 Oct 05:47:02 05:50:38 19° 308° (NW) 05:54:14 ?
ITAMSAT 1 31 Oct 05:49:02 05:52:59 22° 306° (NW) 05:56:54 435.822 SSB
PCSat 31 Oct 05:55:17 06:00:06 31° 331° (NNW) 06:04:57 145.825 MHz
STRAND 1 31 Oct 05:56:00 06:00:10 25° 56° (ENE) 06:04:21 ?
Uosat F 31 Oct 05:58:23 06:03:23 55° 101° (E) 06:08:19 435.120 FM
MaSat-1 31 Oct 06:09:52 06:10:34 11° 31° (NNE) 06:11:15 437.345 MHz
JAS-2 31 Oct 06:23:55 06:31:20 43° 94° (E) 06:38:38 435.800 - 435.900 CW/SSB, 435.910 FM
Saudisat 1A 31 Oct 06:24:49 06:28:10 22° 117° (ESE) 06:31:33 436.775 MHz
AO-27 31 Oct 06:38:10 06:39:52 12° 317° (NW) 06:41:33 436.795 MHz FM
AO-7 31 Oct 06:42:05 06:50:27 85° 293° (WNW) 06:58:49 29.400 - 29.500 MHz
Gurwin Techsat 1B 31 Oct 06:51:06 06:53:54 15° 313° (NW) 06:56:41 435.225 FM
TMSAT-1 31 Oct 06:57:27 07:00:34 16° 311° (NW) 07:03:41 436.925 FM
Sapphire 31 Oct 07:18:53 07:22:57 21° 350° (N) 07:27:01 437.095 MHz 1200 baud AX-25 AFSK
OPAL 31 Oct 07:19:38 07:22:37 16° 271° (W) 07:25:36 ?
Hamsat 31 Oct 07:21:59 07:26:11 62° 101° (ESE) 07:30:22 145.90 MHz
RS-15 31 Oct 07:31:05 07:41:39 53° 243° (WSW) 07:52:38 29.354 - 29.394 USB, Beacon 29.352 USB
STRAND 1 31 Oct 07:33:51 07:38:58 68° 257° (WSW) 07:44:09 ?
Uosat F 31 Oct 07:37:36 07:41:56 29° 301° (WNW) 07:46:15 435.120 FM
PCSat 31 Oct 07:41:14 07:45:10 20° 357° (N) 07:49:07 145.825 MHz
MaSat-1 31 Oct 07:43:52 07:46:32 84° 59° (ENE) 07:48:59 437.345 MHz
Saudisat 1A 31 Oct 08:02:55 08:07:19 76° 317° (NW) 08:11:45 436.775 MHz
JAS-2 31 Oct 08:08:58 08:16:36 60° 295° (WNW) 08:24:12 435.800 - 435.900 CW/SSB, 435.910 FM
SO-67 31 Oct 08:23:10 08:26:27 39° 98° (E) 08:29:43 435.3500 MHz FM
AO-7 31 Oct 08:35:26 08:42:20 31° 317° (NW) 08:49:15 29.400 - 29.500 MHz
Hamsat 31 Oct 08:58:40 09:01:46 20° 301° (WNW) 09:04:54 145.90 MHz
Sapphire 31 Oct 09:03:58 09:08:14 23° 16° (NNE) 09:12:30 437.095 MHz 1200 baud AX-25 AFSK
STRAND 1 31 Oct 09:17:11 09:19:11 12° 277° (W) 09:21:11 ?
HO-68 31 Oct 09:22:19 09:27:54 24° 88° (E) 09:33:27 435.675 MHz FM
PCSat 31 Oct 09:25:50 09:30:23 26° 22° (NNE) 09:34:55 145.825 MHz
Saudisat 1A 31 Oct 09:43:48 09:47:32 26° 340° (NNW) 09:51:17 436.775 MHz
RS-15 31 Oct 09:46:07 09:51:12 14° 267° (W) 09:56:23 29.354 - 29.394 USB, Beacon 29.352 USB
JAS-2 31 Oct 09:54:53 10:00:14 21° 317° (NW) 10:05:39 435.800 - 435.900 CW/SSB, 435.910 FM
SO-67 31 Oct 09:56:35 09:59:14 21° 297° (WNW) 10:01:51 435.3500 MHz FM
Oscar 11 31 Oct 10:03:58 10:06:06 13° 86° (E) 10:08:13 145.825 FM, Beacon 2401.500 USB
AO-7 31 Oct 10:28:39 10:32:37 15° 343° (NNW) 10:36:35 29.400 - 29.500 MHz
KITSAT 1 31 Oct 10:39:44 10:45:31 22° 104° (ESE) 10:51:18 435.175 FM
Sapphire 31 Oct 10:47:34 10:52:53 50° 40° (NE) 10:58:11 437.095 MHz 1200 baud AX-25 AFSK
UKube-1 31 Oct 11:03:34 11:07:46 43° 99° (E) 11:11:56 145.840 MHz, 145.915 MHz
PCSat 31 Oct 11:09:18 11:14:45 68° 46° (NE) 11:20:09 145.825 MHz
HO-68 31 Oct 11:09:19 11:16:35 90° 109° (ESE) 11:23:48 435.675 MHz FM
ZACube-1 31 Oct 11:12:39 11:16:14 26° 93° (E) 11:19:46 437.345 MHz
Saudisat 1A 31 Oct 11:25:07 11:28:25 20° 4° (N) 11:31:42 436.775 MHz
Oscar 16 31 Oct 11:38:59 11:40:05 11° 43° (NE) 11:41:10 437.025 USB, Beacon 2401.1428
